Tekamah, NE

3:20 PM CDT on August 20, 2017 (GMT -0500)
Tekamah

Weather History for KTQE - July, 2014

Change the Weather History Date:

Tuesday, July 22, 2014

  Actual Average Record
Temperature  
Mean Temperature 80 °F -  
Max Temperature 91 °F 85 °F 102 °F (1983)
Min Temperature 70 °F 63 °F 53 °F (1980)
Cooling Degree Days 16    
Growing Degree Days 30 (Base 50)    
Moisture  
Dew Point 71 °F    
Average Humidity 67    
Maximum Humidity 84    
Minimum Humidity 48    
Precipitation  
Precipitation 0.00 in - - ()
Sea Level Pressure  
Sea Level Pressure 29.96 in    
Wind  
Wind Speed 9 mph (North)    
Max Wind Speed 18 mph    
Max Gust Speed 25 mph    
Visibility 10 miles    
Events      
Averages and records for this station are not official NWS values.
T = Trace of Precipitation, MM = Missing Value Source: NWS Daily Summary

Daily Weather History Graph

Daily Weather History Graph

Search for Another Location

Airport or City:

Trip Planner

Search our weather history database for the weather conditions in past years. The results will help you decide how hot, cold, wet, or windy it might be!

Date:

Astronomy

Jul. 22, 2014 Rise Set
Actual Time 6:09 AM CDT 8:52 PM CDT
Civil Twilight 5:36 AM CDT 9:24 PM CDT
Nautical Twilight 4:56 AM CDT 10:05 PM CDT
Astronomical Twilight 4:09 AM CDT 10:51 PM CDT
Moon 2:43 AM CDT (7/22) 5:30 PM CDT (7/22)
Length of Visible Light 15h 48m
Length of Day
14h 43m
Waning Crescent, 16% of the Moon is Illuminated
Jul 22
Waning Crescent
Jul 26
New
Aug 3
First Quarter
Aug 10
Full
Aug 17
Last Quarter

Hourly Weather History & Observations

Time (CDT) Temp. Heat Index Dew Point Humidity Pressure Visibility Wind Dir Wind Speed Gust Speed Precip Events Conditions
12:54 AM 84.0 °F 91.9 °F 75.0 °F 74% 29.81 in 10.0 mi South 6.9 mph - N/A   Clear
1:54 AM 84.9 °F 91.4 °F 73.0 °F 67% 29.81 in 10.0 mi SSW 9.2 mph - N/A   Clear
2:54 AM 84.0 °F 89.6 °F 72.0 °F 67% 29.81 in 10.0 mi SSE 6.9 mph - N/A   Clear
3:54 AM 82.0 °F 86.7 °F 72.0 °F 71% 29.82 in 10.0 mi Calm Calm - N/A   Clear
4:54 AM 82.0 °F 86.7 °F 72.0 °F 71% 29.83 in 10.0 mi SSE 9.2 mph - N/A   Clear
5:54 AM 81.0 °F 85.2 °F 72.0 °F 74% 29.85 in 10.0 mi South 3.5 mph - N/A   Clear
6:54 AM 82.9 °F 88.0 °F 72.0 °F 69% 29.91 in 10.0 mi WNW 12.7 mph - N/A   Clear
7:36 AM 82.0 °F 87.9 °F 73.9 °F 76% 29.98 in 10.0 mi North 13.8 mph 24.2 mph N/A   Mostly Cloudy
7:54 AM 81.0 °F 86.2 °F 73.9 °F 79% 29.93 in 10.0 mi North 16.1 mph 23.0 mph N/A   Mostly Cloudy
8:01 AM 81.0 °F 86.2 °F 73.9 °F 79% 29.98 in 10.0 mi North 13.8 mph - N/A   Scattered Clouds
8:54 AM 81.0 °F 86.7 °F 75.0 °F 82% 29.93 in 10.0 mi North 8.1 mph - N/A   Clear
9:54 AM 84.0 °F 89.0 °F 71.1 °F 65% 29.92 in 10.0 mi NE 4.6 mph - N/A   Clear
10:54 AM 89.1 °F 93.7 °F 69.1 °F 52% 29.95 in 10.0 mi NNE 9.2 mph - N/A   Clear
12:54 PM 88.0 °F 92.1 °F 69.1 °F 53% 30.01 in 10.0 mi North 16.1 mph - N/A   Clear
1:54 PM 88.0 °F 92.1 °F 69.1 °F 53% 30.00 in 10.0 mi North 11.5 mph - N/A   Clear
2:54 PM 90.0 °F 94.5 °F 69.1 °F 50% 30.03 in 10.0 mi North 18.4 mph 24.2 mph N/A   Clear
3:54 PM 89.1 °F 92.1 °F 66.9 °F 48% 30.05 in 10.0 mi North 16.1 mph 24.2 mph N/A   Clear
5:54 PM 84.0 °F 87.8 °F 69.1 °F 61% 30.06 in 10.0 mi North 18.4 mph 25.3 mph N/A   Scattered Clouds
6:54 PM 84.9 °F 88.2 °F 68.0 °F 57% 30.07 in 10.0 mi North 16.1 mph - N/A   Clear
7:54 PM 82.9 °F 85.8 °F 68.0 °F 60% 30.08 in 10.0 mi North 8.1 mph - N/A   Clear
9:54 PM 71.1 °F - 66.0 °F 84% 30.10 in 10.0 mi North 5.8 mph - N/A   Clear
10:54 PM 70.0 °F - 64.9 °F 84% 30.12 in 10.0 mi North 4.6 mph - N/A   Clear